Powrót do katalogu

NOAA 16 DEB

AktywnySSO
NORAD 41287·DEBRIS·🇺🇸 United States

Wystrzelony Sep 21, 2000 z Vandenberg Space Force Base

Loading…

Następne Przeloty (najbliższe 24 godziny)

TLE

ŚwieżeSource: Space-Track

Epoka: Sep 12, 2026, 10:31 UTC

1 41287U 00055GP  26255.43835735  .00003335  00000-0  13170-2 0  9998
2 41287  98.8648 331.2486 0025912 337.8184  22.1874 14.29556504551744

Śledź NOAA 16 DEB w czasie rzeczywistym z AllMySat

Download on the App Store